Beaufort, NC

2:46 AM EDT on June 22, 2018 (GMT -0400)
Smith

Weather History for KMRH - September, 2017

Change the Weather History Date:

Tuesday, September 26, 2017

  Actual Average Record
Temperature  
Mean Temperature 78 °F -  
Max Temperature 84 °F 82 °F 90 °F (1986)
Min Temperature 73 °F 63 °F 48 °F (1967)
Cooling Degree Days 14    
Growing Degree Days 28 (Base 50)    
Moisture  
Dew Point 74 °F    
Average Humidity 90    
Maximum Humidity 100    
Minimum Humidity 69    
Precipitation  
Precipitation 0.03 in - - ()
Sea Level Pressure  
Sea Level Pressure 29.72 in    
Wind  
Wind Speed 21 mph (North)    
Max Wind Speed 28 mph    
Max Gust Speed 44 mph    
Visibility 10 miles    
Events Rain    
Averages and records for this station are not official NWS values.
T = Trace of Precipitation, MM = Missing Value Source: NWS Daily Summary

Daily Weather History Graph

Daily Weather History Graph

Search for Another Location

Airport or City:

Astronomy

Sep. 26, 2017 Rise Set
Actual Time 6:57 AM EDT 6:57 PM EDT
Civil Twilight 6:32 AM EDT 7:22 PM EDT
Nautical Twilight 6:03 AM EDT 7:51 PM EDT
Astronomical Twilight 5:33 AM EDT 8:21 PM EDT
Moon 12:48 PM EDT (9/26) 11:20 PM EDT (9/26)
Length of Visible Light 12h 49m
Length of Day
11h 59m
Waxing Crescent, 36% of the Moon is Illuminated
Sep 26
Waxing Crescent
Sep 27
First Quarter
Oct 5
Full
Oct 12
Last Quarter
Oct 19
New

Hourly Weather History & Observations

Time (EDT) Temp. Heat Index Dew Point Humidity Pressure Visibility Wind Dir Wind Speed Gust Speed Precip Events Conditions
12:58 AM 73.0 °F - 73.0 °F 100% 29.79 in 5.0 mi North 18.4 mph 25.3 mph 0.00 in   Overcast
1:58 AM 73.9 °F - 73.9 °F 100% 29.78 in 7.0 mi North 18.4 mph 26.5 mph 0.00 in   Overcast
2:58 AM 73.9 °F - 73.9 °F 100% 29.76 in 10.0 mi North 18.4 mph 28.8 mph N/A   Overcast
3:58 AM 75.0 °F - 75.0 °F 100% 29.75 in 10.0 mi North 19.6 mph 27.6 mph N/A   Overcast
4:07 AM 75.0 °F - 75.0 °F 100% 29.74 in 10.0 mi North 19.6 mph 31.1 mph N/A   Overcast
4:30 AM 75.0 °F - 75.0 °F 100% 29.75 in 10.0 mi North 23.0 mph 31.1 mph N/A   Overcast
4:38 AM 75.0 °F - 75.0 °F 100% 29.75 in 10.0 mi North 21.9 mph 31.1 mph N/A   Overcast
4:58 AM 75.0 °F - 73.9 °F 96% 29.75 in 10.0 mi North 19.6 mph 28.8 mph N/A   Overcast
5:58 AM 75.0 °F - 73.9 °F 96% 29.74 in 10.0 mi North 18.4 mph 29.9 mph N/A   Overcast
6:58 AM 75.0 °F - 73.9 °F 96% 29.75 in 10.0 mi North 21.9 mph 35.7 mph N/A   Overcast
7:36 AM 75.9 °F - 73.9 °F 94% 29.76 in 10.0 mi North 24.2 mph 32.2 mph N/A   Overcast
7:44 AM 75.9 °F - 73.9 °F 94% 29.76 in 10.0 mi North 18.4 mph 33.4 mph N/A   Overcast
7:58 AM 75.9 °F - 73.9 °F 94% 29.75 in 10.0 mi North 20.7 mph 32.2 mph N/A   Overcast
8:26 AM 75.9 °F - 73.9 °F 94% 29.76 in 10.0 mi North 18.4 mph 29.9 mph 0.00 in   Overcast
8:58 AM 77.0 °F - 73.9 °F 90% 29.77 in 10.0 mi North 18.4 mph 29.9 mph 0.00 in   Overcast
9:58 AM 79.0 °F - 73.9 °F 84% 29.75 in 10.0 mi North 21.9 mph 29.9 mph N/A   Mostly Cloudy
10:58 AM 80.1 °F 84.5 °F 73.9 °F 81% 29.75 in 10.0 mi North 23.0 mph 40.3 mph N/A   Mostly Cloudy
11:58 AM 81.0 °F 86.7 °F 75.0 °F 82% 29.73 in 10.0 mi North 24.2 mph 39.1 mph N/A   Mostly Cloudy
12:58 PM 82.9 °F 88.8 °F 73.0 °F 72% 29.71 in 10.0 mi North 24.2 mph 40.3 mph N/A   Mostly Cloudy
1:32 PM 82.9 °F 89.4 °F 73.9 °F 74% 29.68 in 10.0 mi North 21.9 mph 40.3 mph N/A   Scattered Clouds
1:58 PM 84.0 °F 90.2 °F 73.0 °F 69% 29.68 in 10.0 mi North 27.6 mph 43.7 mph N/A   Partly Cloudy
2:58 PM 84.9 °F 92.1 °F 73.9 °F 69% 29.68 in 10.0 mi North 25.3 mph 42.6 mph N/A   Scattered Clouds
3:58 PM 84.0 °F 90.2 °F 73.0 °F 69% 29.68 in 10.0 mi North 24.2 mph 41.4 mph N/A   Partly Cloudy
4:58 PM 82.9 °F 88.8 °F 73.0 °F 72% 29.68 in 10.0 mi North 24.2 mph 39.1 mph 0.00 in   Scattered Clouds
5:58 PM 81.0 °F 85.8 °F 73.0 °F 77% 29.68 in 10.0 mi North 20.7 mph 34.5 mph N/A   Partly Cloudy
6:58 PM 79.0 °F - 73.0 °F 82% 29.69 in 10.0 mi NNW 21.9 mph - N/A   Overcast
7:58 PM 77.0 °F - 73.9 °F 90% 29.70 in 10.0 mi North 21.9 mph 27.6 mph 0.00 in   Overcast
8:06 PM 78.1 °F - 73.0 °F 84% 29.69 in 10.0 mi NNW 20.7 mph 31.1 mph N/A   Overcast
8:14 PM 78.1 °F - 73.0 °F 84% 29.70 in 10.0 mi NNW 17.3 mph 28.8 mph N/A   Overcast
8:21 PM 78.1 °F - 73.9 °F 87% 29.70 in 10.0 mi NNW 21.9 mph 29.9 mph N/A   Overcast
8:58 PM 75.9 °F - 75.0 °F 97% 29.71 in 9.0 mi NNW 17.3 mph 27.6 mph 0.00 in Rain Light Rain
9:08 PM 75.0 °F - 75.0 °F 100% 29.71 in 5.0 mi NNW 20.7 mph 26.5 mph 0.02 in Rain Rain
9:58 PM 75.0 °F - 75.0 °F 100% 29.72 in 10.0 mi NNW 19.6 mph 27.6 mph 0.03 in   Overcast
10:29 PM 75.0 °F - 75.0 °F 100% 29.71 in 8.0 mi NNW 24.2 mph 35.7 mph 0.00 in Rain Light Rain
10:58 PM 75.0 °F - 75.0 °F 100% 29.71 in 10.0 mi NNW 21.9 mph 27.6 mph 0.00 in   Overcast
11:51 PM 75.0 °F - 75.0 °F 100% 29.69 in 10.0 mi NNW 23.0 mph 32.2 mph 0.00 in   Overcast
11:58 PM 75.0 °F - 75.0 °F 100% 29.70 in 10.0 mi NNW 24.2 mph 29.9 mph 0.00 in   Overcast